Carbondale, IL

1:54 AM CST on November 13, 2019 (GMT -0600)
Southern Illinois

Weather History for KMDH - August, 2019

Change the Weather History Date:

Tuesday, August 6, 2019

  Actual Average Record
Temperature  
Mean Temperature 82 °F -  
Max Temperature 91 °F 87 °F 109 °F (1947)
Min Temperature 72 °F 64 °F 48 °F (1957)
Cooling Degree Days 16    
Growing Degree Days 32 (Base 50)    
Moisture  
Dew Point 72 °F    
Average Humidity 78    
Maximum Humidity 97    
Minimum Humidity 57    
Precipitation  
Precipitation 0.00 in - - ()
Sea Level Pressure  
Sea Level Pressure 29.85 in    
Wind  
Wind Speed 5 mph (SW)    
Max Wind Speed 18 mph    
Max Gust Speed 26 mph    
Visibility 9 miles    
Events Rain , Thunderstorm    
Averages and records for this station are not official NWS values.
T = Trace of Precipitation, MM = Missing Value Source: NWS Daily Summary

Daily Weather History Graph

Daily Weather History Graph

Search for Another Location

Airport or City:

Astronomy

Aug. 06, 2019 Rise Set
Actual Time 6:04 AM CDT 8:00 PM CDT
Civil Twilight 5:35 AM CDT 8:29 PM CDT
Nautical Twilight 5:00 AM CDT 9:04 PM CDT
Astronomical Twilight 4:23 AM CDT 9:41 PM CDT
Moon 12:22 PM CDT (8/6) 11:52 PM CDT (8/6)
Length of Visible Light 14h 53m
Length of Day
13h 56m
Waxing Crescent, 39% of the Moon is Illuminated
Aug 6
Waxing Crescent
Aug 7
First Quarter
Aug 15
Full
Aug 23
Last Quarter
Aug 30
New

Hourly Weather History & Observations

Time (CDT) Temp. Heat Index Dew Point Humidity Pressure Visibility Wind Dir Wind Speed Gust Speed Precip Events Conditions
12:52 AM 72.0 °F - 70.0 °F 93% 29.92 in 7.0 mi Calm Calm - N/A   Clear
1:52 AM 73.0 °F - 71.1 °F 93% 29.91 in 7.0 mi Calm Calm - N/A   Clear
2:52 AM 73.0 °F - 70.0 °F 90% 29.89 in 8.0 mi SW 5.8 mph - N/A   Clear
3:52 AM 72.0 °F - 70.0 °F 93% 29.89 in 8.0 mi SW 4.6 mph - N/A   Mostly Cloudy
4:52 AM 72.0 °F - 69.1 °F 91% 29.88 in 8.0 mi South 4.6 mph - N/A   Partly Cloudy
5:44 AM 72.0 °F - 70.0 °F 93% 29.90 in 8.0 mi South 3.5 mph - N/A Thunderstorm Mostly Cloudy
5:52 AM 73.0 °F - 70.0 °F 90% 29.89 in 9.0 mi Calm Calm - N/A Thunderstorm Mostly Cloudy
6:06 AM 72.0 °F - 70.0 °F 93% 29.92 in 7.0 mi NNE 6.9 mph - N/A Thunderstorm Thunderstorm
6:31 AM 73.9 °F - 70.0 °F 87% 29.92 in 7.0 mi ENE 3.5 mph - N/A Thunderstorm Mostly Cloudy
6:49 AM 73.4 °F - 69.8 °F 88% 29.91 in 7.0 mi SSE 4.6 mph - N/A   Scattered Clouds
6:52 AM 73.0 °F - 70.0 °F 90% 29.90 in 7.0 mi SSE 3.5 mph - N/A   Scattered Clouds
7:52 AM 73.9 °F - 72.0 °F 93% 29.91 in 6.0 mi ESE 3.5 mph - N/A   Mostly Cloudy
8:52 AM 75.9 °F - 72.0 °F 87% 29.86 in 8.0 mi SW 11.5 mph - N/A   Clear
9:52 AM 81.0 °F 85.2 °F 72.0 °F 74% 29.88 in 10.0 mi WSW 10.4 mph - N/A   Clear
10:52 AM 84.0 °F 90.2 °F 73.0 °F 69% 29.88 in 10.0 mi WSW 9.2 mph - N/A   Clear
11:52 AM 88.0 °F 96.5 °F 73.9 °F 63% 29.86 in 10.0 mi West 11.5 mph - N/A   Clear
12:52 PM 89.1 °F 98.0 °F 73.9 °F 61% 29.86 in 10.0 mi West 8.1 mph - N/A   Partly Cloudy
1:31 PM 89.1 °F 98.0 °F 73.9 °F 61% 29.86 in 9.0 mi West 6.9 mph - 0.00 in Rain , Thunderstorm Light Thunderstorms and Rain
1:52 PM 90.0 °F 99.0 °F 73.9 °F 59% 29.84 in 10.0 mi WSW 10.4 mph - 0.00 in Thunderstorm Scattered Clouds
2:03 PM 91.0 °F 100.4 °F 73.9 °F 57% 29.84 in 10.0 mi West 10.4 mph - N/A   Clear
2:49 PM 91.4 °F 102.5 °F 75.2 °F 59% 29.82 in 10.0 mi SW 13.8 mph - N/A Thunderstorm Clear
2:52 PM 91.0 °F 100.4 °F 73.9 °F 57% 29.81 in 10.0 mi SW 11.5 mph - N/A Thunderstorm Clear
3:12 PM 90.0 °F 102.5 °F 77.0 °F 65% 29.81 in 10.0 mi South 11.5 mph - 0.00 in Rain Light Rain
3:23 PM 88.0 °F 96.5 °F 73.9 °F 63% 29.81 in 10.0 mi SSW 12.7 mph - 0.00 in Thunderstorm Thunderstorm
3:38 PM 88.0 °F 94.7 °F 72.0 °F 59% 29.81 in 10.0 mi SW 13.8 mph - 0.00 in Thunderstorm Mostly Cloudy
3:52 PM 86.0 °F 92.2 °F 72.0 °F 63% 29.80 in 10.0 mi SW 18.4 mph 26.5 mph 0.00 in Thunderstorm Thunderstorm
4:10 PM 84.0 °F 89.0 °F 71.1 °F 65% 29.78 in 10.0 mi SW 10.4 mph - N/A   Partly Cloudy
4:52 PM 81.0 °F 84.9 °F 71.1 °F 72% 29.79 in 10.0 mi SW 5.8 mph - N/A   Mostly Cloudy
5:02 PM 82.0 °F 86.3 °F 71.1 °F 69% 29.80 in 10.0 mi SW 8.1 mph - N/A Thunderstorm Mostly Cloudy
5:27 PM 82.0 °F 86.7 °F 72.0 °F 71% 29.81 in 10.0 mi SW 8.1 mph - 0.00 in   Scattered Clouds
5:52 PM 81.0 °F 85.8 °F 73.0 °F 77% 29.80 in 10.0 mi SSW 3.5 mph - 0.00 in   Mostly Cloudy
6:52 PM 81.0 °F 86.2 °F 73.9 °F 79% 29.81 in 10.0 mi Calm Calm - N/A   Mostly Cloudy
7:52 PM 79.0 °F - 73.9 °F 84% 29.80 in 10.0 mi SSW 6.9 mph - N/A   Mostly Cloudy
8:52 PM 75.9 °F - 73.9 °F 94% 29.82 in 10.0 mi Calm Calm - N/A   Overcast
9:52 PM 73.9 °F - 73.0 °F 97% 29.83 in 9.0 mi South 5.8 mph - N/A   Scattered Clouds
10:52 PM 73.0 °F - 71.1 °F 93% 29.85 in 10.0 mi West 6.9 mph - N/A   Partly Cloudy
11:52 PM 72.0 °F - 68.0 °F 87% 29.85 in 10.0 mi West 5.8 mph - N/A   Clear